[[{"header":{"parameterUnit":"m.s-1","parameterCategory":1,"la1":30.2991,"la2":30.254,"lo1":-89.0895,"lo2":-89.0444,"dy":0.0017,"dx":0.0017,"nx":28,"ny":28,"refTime":"2024-04-23T03:00:00:Z","depth":0,"parameterNumber":2,"parameterNumberName":"U-component_of_WINDS"},"data":[0,0,0,0,0,0,0,0,0,0,0,0,0,0,0,0,0,0,0,0,0,0,0,0,0,0,0,0,0,0,0,0,0,0,0,0,0,0,0,0,0,0,0,0,0,0,0,0,0,0,0,0,0,0,0,0,0,0,-0.8883,-0.8884,0,-0.8923,-0.8924,-0.8924,-0.8928,-0.8928,-0.8928,-0.8927,-0.8969,-0.897,-0.8972,0,0,0,0,0,0,0,0,0,0,0,0,0,-0.8812,-0.8813,-0.8883,-0.8884,-0.8884,-0.8923,-0.8924,-0.8924,-0.8928,-0.8928,-0.8927,-0.8927,-0.8968,-0.897,-0.8972,0,0,0,0,0,0,0,0,0,0,0,0,0,-0.8846,-0.8814,-0.8883,-0.8891,-0.8892,-0.8923,-0.8924,-0.8924,-0.8929,-0.8928,-0.8927,-0.8927,-0.8968,-0.897,-0.8972,-0.8998,0,0,-0.8979,-0.898,0,0,0,0,0,0,0,0,-0.8844,-0.8849,-0.8889,-0.889,-0.8892,-0.892,-0.8914,-0.8949,-0.8929,-0.8915,-0.8927,-0.8926,-0.8953,-0.8957,-0.8966,-0.9,-0.9002,-0.8979,-0.8981,-0.8982,-0.8982,0,0,0,0,0,0,0,-0.8842,-0.8847,-0.8899,-0.889,-0.8891,-0.8893,-0.8897,-0.8921,-0.8937,-0.8916,-0.8916,-0.8921,-0.8954,-0.8963,-0.8967,-0.9003,-0.8979,-0.8981,-0.8983,-0.8983,-0.9062,-0.9063,0,0,0,0,0,0,-0.8838,-0.8845,-0.8898,-0.89,-0.8866,-0.8895,-0.8899,-0.8912,-0.8937,-0.894,-0.8921,-0.8921,-0.896,-0.8964,-0.8968,-0.9001,-0.8982,-0.8984,-0.8985,-0.9061,-0.9062,-0.9063,0,0,0,0,0,0,-0.8837,-0.8843,-0.8896,-0.8873,-0.888,-0.8897,-0.891,-0.8913,-0.8922,-0.8941,-0.8944,-0.8928,-0.896,-0.8965,-0.8991,-0.9002,-0.8985,-0.8987,-0.906,-0.9062,-0.9063,-0.9067,0,0,0,0,0,0,-0.8834,-0.8842,-0.8852,-0.8873,-0.8881,-0.8918,-0.8911,-0.8914,-0.8926,-0.8926,-0.8948,-0.8951,-0.8959,-0.8988,-0.8993,-0.9005,-0.8989,-0.906,-0.9061,-0.9062,-0.9066,-0.9068,-0.907,0,0,0,0,0,-0.8832,-0.8851,-0.8852,-0.8859,-0.8894,-0.8919,-0.8923,-0.8932,-0.8927,-0.8937,-0.8949,-0.895,-0.9,-0.899,-0.8997,-0.9009,-0.9059,-0.9061,-0.9062,-0.9065,-0.9067,-0.907,0,0,0,0,0,0,-0.8831,-0.8854,-0.8856,-0.8882,-0.8899,-0.8919,-0.8933,-0.8935,-0.8953,-0.8952,-0.8963,-0.8968,-0.8994,-0.9004,-0.8993,-0.9037,-0.9029,-0.9032,-0.9029,-0.9031,-0.9033,-0.903,-0.899,0,0,0,0,0,-0.8834,-0.8852,-0.8872,-0.8894,-0.8902,-0.8916,-0.8927,-0.8933,-0.895,-0.8957,-0.8971,-0.8988,-0.9007,-0.902,-0.9039,-0.9067,-0.9072,-0.9079,-0.9081,-0.9083,-0.9085,-0.9102,-0.9105,-0.9069,-0.9069,-0.9068,0,0,-0.8841,-0.8856,-0.8866,-0.8894,-0.8907,-0.8926,-0.8921,-0.8942,-0.8956,-0.896,-0.8985,-0.8996,-0.9016,-0.9043,-0.9056,-0.9053,-0.9096,-0.9085,-0.9086,-0.9088,-0.9104,-0.9107,-0.911,-0.907,-0.9069,-0.9069,0,0,-0.8862,-0.8875,-0.8895,-0.8908,-0.8928,-0.8937,-0.8942,-0.8963,-0.897,-0.8996,-0.8999,-0.9017,-0.905,-0.9064,-0.9076,-0.9103,-0.9105,-0.9109,-0.912,-0.9136,-0.9138,-0.9141,-0.9151,-0.9155,-0.9112,-0.9112,-0.9112,0,-0.8868,-0.8896,-0.8905,-0.8925,-0.8938,-0.8942,-0.8962,-0.8975,-0.9,-0.9009,-0.9005,-0.9047,-0.9061,-0.9092,-0.9099,-0.9108,-0.9114,-0.9107,-0.9137,-0.914,-0.9143,-0.9153,-0.9156,-0.9112,-0.9112,-0.9112,-0.9112,0,-0.8903,-0.8922,-0.8936,-0.896,-0.8974,-0.8994,-0.9007,-0.902,-0.9024,-0.9034,-0.9061,-0.9077,-0.91,-0.9108,-0.9112,-0.914,-0.9137,-0.9135,-0.9128,-0.9146,-0.9156,-0.916,-0.9112,-0.9112,-0.9112,-0.9112,0,0,-0.8925,-0.8954,-0.8959,-0.897,-0.8992,-0.9008,-0.9029,-0.9051,-0.9062,-0.9079,-0.9097,-0.9126,-0.9124,-0.9137,-0.9144,-0.9157,-0.9179,-0.9154,-0.9154,-0.9158,-0.9211,-0.9212,-0.9217,-0.918,-0.9181,-0.9181,-0.9209,0,-0.895,-0.8986,-0.8995,-0.9027,-0.9045,-0.905,-0.9068,-0.9084,-0.9094,-0.9112,-0.9123,-0.9143,-0.9139,-0.9147,-0.9161,-0.9173,-0.919,-0.9171,-0.9198,-0.9198,-0.9193,-0.9222,-0.9223,-0.9249,-0.9213,-0.9214,-0.9214,0,-0.8983,-0.9001,-0.9034,-0.9055,-0.9063,-0.9079,-0.91,-0.9117,-0.9135,-0.9142,-0.9156,-0.9161,-0.9184,-0.9175,-0.9207,-0.9194,-0.9205,-0.9213,-0.9214,-0.9217,-0.9208,-0.9226,-0.9257,-0.9261,-0.922,-0.9219,-0.9219,0,-0.8997,-0.9029,-0.9054,-0.9063,-0.9087,-0.9099,-0.9109,-0.9127,-0.914,-0.9159,-0.9167,-0.9188,-0.92,-0.9216,-0.9227,-0.9219,-0.9258,-0.925,-0.9264,-0.9264,-0.9272,-0.9271,-0.9306,-0.9279,-0.9278,-0.9278,-0.9278,0,-0.9024,-0.9044,-0.906,-0.9075,-0.9099,-0.9109,-0.9132,-0.9142,-0.9158,-0.9176,-0.9181,-0.9198,-0.9211,-0.9229,-0.9238,-0.9263,-0.9268,-0.9274,-0.9276,-0.9274,-0.9273,-0.9281,-0.928,-0.9279,-0.9279,-0.9279,-0.9279,0,-0.9043,-0.9055,-0.9082,-0.9102,-0.9108,-0.9124,-0.9142,-0.9157,-0.9167,-0.919,-0.9196,-0.9212,-0.9234,-0.9246,-0.9274,-0.9279,-0.9307,-0.9308,-0.9301,-0.9302,-0.9316,-0.9315,-0.9357,-0.9364,-0.9332,-0.9332,-0.9332,0,-0.906,-0.9076,-0.9098,-0.911,-0.9121,-0.914,-0.9153,-0.9164,-0.9177,-0.92,-0.9212,-0.9235,-0.9253,-0.9288,-0.9302,-0.9324,-0.9326,-0.9339,-0.9329,-0.9326,-0.9327,-0.9326,-0.9328,-0.9341,-0.9341,-0.9342,-0.9342,0,-0.9089,-0.9093,-0.9112,-0.9132,-0.9148,-0.9164,-0.9181,-0.9191,-0.9204,-0.9219,-0.9242,-0.9256,-0.9284,-0.9307,-0.9329,-0.9341,-0.9344,-0.9345,-0.9349,-0.9347,-0.9343,-0.9346,-0.9307,-0.9344,-0.9344,-0.9344,-0.9343,-0.9343,-0.9108,-0.9122,-0.914,-0.9161,-0.9174,-0.919,-0.9205,-0.9217,-0.9236,-0.9259,-0.9264,-0.9288,-0.9307,-0.9337,-0.935,-0.9369,-0.9366,-0.9373,-0.9374,-0.9376,-0.9377,-0.9339,-0.9373,-0.9373,-0.9373,-0.9373,-0.9373,0,-0.9137,-0.9149,-0.9168,-0.9191,-0.9207,-0.9208,-0.9226,-0.924,-0.9261,-0.9278,-0.9296,-0.9322,-0.9343,-0.9359,-0.9382,-0.9394,-0.9396,-0.9399,-0.9399,-0.9402,-0.9377,-0.9371,-0.9397,-0.9397,-0.9397,-0.9397,-0.9397,-0.9397,-0.9155,-0.9179,-0.9186,-0.9218,-0.923,-0.9253,-0.9263,-0.9278,-0.9291,-0.932,-0.9338,-0.9348,-0.9365,-0.9388,-0.9409,-0.9413,-0.9421,-0.9424,-0.9429,-0.9406,-0.9403,-0.9401,-0.9395,-0.9426,-0.9426,-0.9452,-0.9452,-0.9452]},{"header":{"parameterUnit":"m.s-1","parameterCategory":1,"la1":30.2991,"la2":30.254,"lo1":-89.0895,"lo2":-89.0444,"dy":0.0017,"dx":0.0017,"nx":28,"ny":28,"refTime":"2024-04-23T03:00:00:Z","depth":0,"parameterNumber":3,"parameterNumberName":"V-component_of_WINDS"},"data":[0,0,0,0,0,0,0,0,0,0,0,0,0,0,0,0,0,0,0,0,0,0,0,0,0,0,0,0,0,0,0,0,0,0,0,0,0,0,0,0,0,0,0,0,0,0,0,0,0,0,0,0,0,0,0,0,0,0,4.7869,4.787,0,4.7917,4.7918,4.7918,4.7862,4.786,4.7858,4.7856,4.7902,4.7905,4.7908,0,0,0,0,0,0,0,0,0,0,0,0,0,4.7725,4.7728,4.7869,4.787,4.787,4.7917,4.7918,4.7918,4.7862,4.786,4.7857,4.7855,4.7901,4.7905,4.7908,0,0,0,0,0,0,0,0,0,0,0,0,0,4.7781,4.7729,4.7869,4.7848,4.7847,4.7917,4.7918,4.7918,4.7863,4.786,4.7857,4.7854,4.79,4.7904,4.7909,4.8001,0,0,4.7923,4.7926,0,0,0,0,0,0,0,0,4.7778,4.7787,4.7851,4.785,4.7848,4.788,4.7883,4.7946,4.7864,4.7857,4.7856,4.7852,4.7897,4.7902,4.7918,4.8003,4.8005,4.7924,4.7927,4.7929,4.793,0,0,0,0,0,0,0,4.7774,4.7784,4.7888,4.7852,4.785,4.7835,4.7839,4.7895,4.7894,4.7857,4.7853,4.786,4.7896,4.7913,4.7918,4.8006,4.7924,4.7928,4.7931,4.7933,4.8165,4.8168,0,0,0,0,0,0,4.7773,4.7782,4.7886,4.7889,4.7805,4.784,4.7845,4.7873,4.7893,4.7893,4.7862,4.7857,4.7907,4.7913,4.792,4.8026,4.7929,4.7933,4.7936,4.8162,4.8166,4.817,0,0,0,0,0,0,4.7771,4.7783,4.7885,4.7834,4.7846,4.7846,4.7878,4.7876,4.7893,4.7897,4.7896,4.7881,4.7904,4.7913,4.798,4.8027,4.7935,4.794,4.8158,4.8163,4.8168,4.8241,0,0,0,0,0,0,4.7767,4.7783,4.7819,4.7836,4.7849,4.7946,4.7881,4.7879,4.7902,4.7895,4.7914,4.7914,4.7903,4.7974,4.7985,4.8032,4.7943,4.8154,4.816,4.8166,4.8234,4.8248,4.8259,0,0,0,0,0,4.7762,4.7838,4.7821,4.7834,4.7895,4.7949,4.7956,4.7943,4.7906,4.7941,4.7943,4.7913,4.802,4.7981,4.7994,4.8042,4.8151,4.8159,4.8166,4.8228,4.8245,4.8259,0,0,0,0,0,0,4.7826,4.784,4.7821,4.7905,4.7927,4.794,4.7984,4.7961,4.7992,4.7985,4.7965,4.797,4.8041,4.8049,4.8005,4.813,4.8079,4.809,4.8123,4.8138,4.8151,4.8146,4.7947,0,0,0,0,0,4.785,4.7895,4.7904,4.7977,4.7988,4.7984,4.8008,4.7995,4.8016,4.8024,4.8031,4.8052,4.8089,4.8115,4.815,4.8236,4.8237,4.8275,4.8287,4.8298,4.8306,4.8348,4.8364,4.8194,4.8194,4.8194,0,0,4.79,4.7913,4.7942,4.799,4.8005,4.8049,4.7992,4.8042,4.8074,4.8031,4.8095,4.8101,4.8122,4.8198,4.8232,4.8207,4.8353,4.8307,4.8315,4.8318,4.8358,4.8374,4.8388,4.8199,4.8198,4.8198,0,0,4.8013,4.8029,4.809,4.8105,4.8129,4.8125,4.814,4.8156,4.8158,4.8222,4.819,4.8227,4.8294,4.8309,4.8326,4.8442,4.8415,4.8455,4.8519,4.856,4.8574,4.8585,4.8624,4.8638,4.8463,4.8464,4.8464,0,4.8071,4.8138,4.8124,4.8175,4.8196,4.816,4.8219,4.8235,4.8269,4.8283,4.8254,4.8335,4.8347,4.8425,4.8453,4.8469,4.8482,4.8451,4.8573,4.8585,4.8595,4.8632,4.8647,4.8468,4.8468,4.8467,4.8467,0,4.8207,4.8254,4.83,4.8333,4.8359,4.8415,4.8407,4.8435,4.842,4.8419,4.8482,4.8495,4.8531,4.8549,4.8535,4.8624,4.8607,4.8577,4.8524,4.8616,4.865,4.8664,4.8474,4.8473,4.8471,4.847,0,0,4.8362,4.8385,4.8402,4.8415,4.8437,4.8472,4.8525,4.856,4.8583,4.8607,4.8649,4.8706,4.8676,4.8695,4.8683,4.872,4.8807,4.8684,4.8684,4.8704,4.8902,4.8923,4.8939,4.879,4.8793,4.8795,4.8899,0,4.8473,4.8565,4.8552,4.864,4.8681,4.8646,4.8692,4.8709,4.871,4.8743,4.8743,4.8782,4.8743,4.8753,4.8789,4.8789,4.8846,4.8782,4.8826,4.8828,4.8819,4.8958,4.898,4.9078,4.8912,4.8915,4.8916,0,4.8614,4.8642,4.8734,4.8747,4.8764,4.8806,4.8835,4.8869,4.8887,4.8884,4.8905,4.8885,4.8935,4.8884,4.8952,4.8908,4.8926,4.8929,4.8932,4.8934,4.8876,4.896,4.9109,4.9123,4.8938,4.8936,4.8934,0,4.8713,4.8775,4.8837,4.885,4.8867,4.8897,4.8905,4.892,4.8942,4.8968,4.898,4.9012,4.9029,4.9053,4.9041,4.9006,4.911,4.9059,4.9107,4.9107,4.9129,4.9127,4.928,4.9145,4.9145,4.9145,4.9144,0,4.8837,4.8893,4.8881,4.8919,4.8981,4.8965,4.9026,4.903,4.9044,4.908,4.9053,4.9088,4.9071,4.9104,4.9096,4.9151,4.916,4.9157,4.9154,4.9158,4.9158,4.9168,4.9159,4.9149,4.9148,4.9147,4.9146,0,4.8957,4.8952,4.9017,4.9028,4.9032,4.9076,4.9085,4.9119,4.9117,4.9164,4.9173,4.917,4.9207,4.9198,4.9239,4.9233,4.9302,4.9292,4.9296,4.9292,4.934,4.9335,4.9502,4.9522,4.9377,4.9379,4.938,0,4.9035,4.9078,4.9093,4.9115,4.9126,4.9163,4.9184,4.917,4.9193,4.9215,4.9246,4.9281,4.9308,4.9369,4.9369,4.9399,4.9387,4.9444,4.9392,4.9394,4.9384,4.9381,4.9383,4.9454,4.9455,4.9457,4.9458,0,4.9172,4.9167,4.9199,4.9229,4.9255,4.9278,4.9299,4.9319,4.9305,4.9332,4.937,4.9391,4.9432,4.9465,4.9493,4.95,4.9476,4.9475,4.9487,4.949,4.949,4.9487,4.9321,4.947,4.9469,4.9468,4.9467,4.9467,4.9272,4.9307,4.9322,4.9358,4.9371,4.9391,4.9422,4.9424,4.9455,4.9487,4.9477,4.9519,4.9534,4.9568,4.9579,4.961,4.9589,4.9607,4.9612,4.9616,4.962,4.9487,4.9616,4.9616,4.9615,4.9615,4.9615,0,4.9405,4.9413,4.9446,4.9474,4.9502,4.9478,4.9498,4.9522,4.956,4.9576,4.9603,4.9644,4.9677,4.9679,4.9709,4.9734,4.9723,4.9742,4.9738,4.9739,4.9639,4.9624,4.9749,4.9749,4.9749,4.9749,4.9749,4.9749,4.9477,4.9534,4.953,4.9592,4.96,4.9641,4.9654,4.9671,4.9683,4.9731,4.9758,4.9759,4.9769,4.9799,4.9827,4.9826,4.9837,4.986,4.9855,4.9761,4.9747,4.9734,4.972,4.9863,4.9863,4.9952,4.9953,4.9953]}]]